Weather History for Fort Leonard Wood, MO

Change the Weather History Date:

Wednesday, November 7, 2012

  Actual Average Record
Temperature  
Mean Temperature 42 °F -  
Max Temperature 50 °F 55 °F 78 °F (1999)
Min Temperature 33 °F 40 °F 22 °F (2007)
Degree Days  
Heating Degree Days 23    
Moisture  
Dew Point 34 °F    
Average Humidity 71    
Maximum Humidity 94    
Minimum Humidity 52    
Precipitation  
Precipitation 0.00 in - - ()
Sea Level Pressure  
Sea Level Pressure 30.10 in    
Wind  
Wind Speed 7 mph (NNW)    
Max Wind Speed 15 mph    
Max Gust Speed 24 mph    
Visibility 9 miles    
Events      
Averages and records for this station are not official NWS values.
T = Trace of Precipitation, MM = Missing Value Source: NWS Daily Summary

Daily Weather History Graph

Daily Weather History Graph

Search for Another Location

Airport:

Trip Planner

Search our weather history database for the weather conditions in past years. The results will help you decide how hot, cold, wet, or windy it might be!

Date:

Astronomy

Nov. 07, 2012 Rise Set
Actual Time 6:40 AM CST 5:03 PM CST
Civil Twilight 6:13 AM CST 5:30 PM CST
Nautical Twilight 5:41 AM CST 6:02 PM CST
Astronomical Twilight 5:11 AM CST 6:32 PM CST
Moon No Moon Rise 1:05 PM CST (11/7)
Length of Visible Light 11h 17m
Length of Day
10h 22m
Last Quarter, 43% of the Moon is Illuminated
Nov 7
Last Quarter
Nov 13
New
Nov 20
First Quarter
Nov 28
Full
Dec 6
Last Quarter

Hourly Weather History & Observations

Time (CST) Temp. Windchill Dew Point Humidity Pressure Visibility Wind Dir Wind Speed Gust Speed Precip Events Conditions
12:55 AM 43.0 °F 39.5 °F 34.0 °F 71% 30.00 in 10.0 mi WNW 5.8 mph - N/A   Clear
1:55 AM 42.8 °F 39.3 °F 34.2 °F 72% 30.01 in 10.0 mi West 5.8 mph - N/A   Overcast
2:55 AM 41.9 °F 38.2 °F 34.0 °F 73% 30.01 in 10.0 mi WNW 5.8 mph - N/A   Clear
3:55 AM 41.0 °F 36.4 °F 34.0 °F 76% 30.00 in 10.0 mi West 6.9 mph - N/A   Scattered Clouds
4:55 AM 40.8 °F 36.9 °F 34.0 °F 77% 30.02 in 10.0 mi West 5.8 mph - N/A   Scattered Clouds
5:55 AM 40.5 °F 36.5 °F 34.2 °F 78% 30.02 in 10.0 mi WNW 5.8 mph - N/A   Overcast
6:55 AM 40.3 °F 35.5 °F 34.0 °F 78% 30.05 in 10.0 mi WNW 6.9 mph - N/A   Overcast
7:55 AM 41.5 °F 35.4 °F 34.2 °F 75% 30.08 in 10.0 mi WNW 10.4 mph - N/A   Overcast
8:55 AM 43.2 °F 39.7 °F 35.1 °F 73% 30.09 in 10.0 mi Variable 5.8 mph - N/A   Overcast
9:55 AM 46.8 °F - 35.8 °F 66% 30.11 in 10.0 mi NW 13.8 mph - N/A   Partly Cloudy
10:55 AM 47.5 °F - 33.1 °F 57% 30.12 in 10.0 mi NNW 15.0 mph 24.2 mph N/A   Overcast
11:55 AM 48.4 °F - 34.9 °F 60% 30.12 in 10.0 mi NW 8.1 mph - N/A   Mostly Cloudy
12:55 PM 50.7 °F - 33.4 °F 52% 30.11 in 10.0 mi North 12.7 mph 17.3 mph N/A   Scattered Clouds
1:55 PM 50.7 °F - 34.2 °F 53% 30.10 in 10.0 mi NNW 11.5 mph 17.3 mph N/A   Scattered Clouds
2:55 PM 50.0 °F - 33.6 °F 53% 30.12 in 10.0 mi North 8.1 mph - N/A   Clear
3:55 PM 48.7 °F - 34.0 °F 57% 30.13 in 10.0 mi NNE 8.1 mph - N/A   Scattered Clouds
4:55 PM 46.6 °F - 33.8 °F 61% 30.13 in 5.0 mi NE 4.6 mph - N/A   Haze
5:55 PM 43.3 °F 41.7 °F 33.6 °F 69% 30.14 in 6.0 mi ENE 3.5 mph - N/A   Haze
6:55 PM 42.3 °F 40.5 °F 33.4 °F 71% 30.16 in 10.0 mi East 3.5 mph - N/A   Clear
7:55 PM 39.9 °F 36.7 °F 33.3 °F 77% 30.16 in 10.0 mi East 4.6 mph - N/A   Clear
8:55 PM 37.6 °F 33.1 °F 32.9 °F 83% 30.17 in 10.0 mi SE 5.8 mph - N/A   Clear
9:55 PM 35.1 °F 30.1 °F 32.4 °F 90% 30.17 in 10.0 mi SE 5.8 mph - N/A   Clear
10:55 PM 34.3 °F 28.4 °F 32.4 °F 92% 30.16 in 4.0 mi SE 6.9 mph - N/A   Clear
11:55 PM 33.4 °F 28.1 °F 32.0 °F 94% 30.17 in 10.0 mi SSE 5.8 mph - N/A   Clear